Abraham Lincoln Capital Airport Airport (SPI)

 

Airport Diagram
Current Weather/Forecast (VFR Conditions)
METAR KSPI 280052Z 36016G26KT 10SM OVC060 18/09 A2982 RMK AO2 PK WND 34027/0018 RAB01E24 SLP094 P0000 T01830089
TAF KSPI 272322Z 2800/2824 36012KT P6SM BKN080 FM280200 35012KT 6SM -SHRA BR OVC040 FM280400 35012KT 6SM -SHRA BR OVC025 FM281100 31007KT P6SM VCSH BKN015

All Charts
General
Chart Name Download
AIRPORT DIAGRAM
TAKEOFF MINIMUMS
ALTERNATE MINIMUMS
RADAR MINIMUMS
HOT SPOT
LAHSO

Approaches
Chart Name Download
ILS OR LOC RWY 04
ILS OR LOC RWY 22
ILS OR LOC RWY 31
RNAV (GPS) RWY 04
RNAV (GPS) RWY 13
RNAV (GPS) RWY 22
RNAV (GPS) RWY 31
VOR/DME RWY 13
VOR/DME RWY 22
VOR/DME RWY 31
VOR RWY 04


Inbound Traffic (Arrivals)

No inbound traffic.


Outbound Traffic (Departures)

No outbound traffic.